Weather History for Plymouth, NH

Change the Weather History Date:

Friday, November 30, 2012

  Actual Average (KLCI) Record (KLCI)
Temperature  
Mean Temperature 22 °F -  
Max Temperature 27 °F 41 °F 64 °F (2006)
Min Temperature 16 °F 27 °F 8 °F (2013)
Degree Days  
Heating Degree Days 44    
Moisture  
Dew Point 8 °F    
Average Humidity 57    
Maximum Humidity 70    
Minimum Humidity 45    
Precipitation  
Precipitation 0.00 in - - ()
Sea Level Pressure  
Sea Level Pressure 30.45 in    
Wind  
Wind Speed 8 mph (WNW)    
Max Wind Speed 16 mph    
Max Gust Speed 22 mph    
Visibility 10 miles    
Events Snow    
Averages and records for this station are not official NWS values.
T = Trace of Precipitation, MM = Missing Value Source: NWS Daily Summary

Daily Weather History Graph

Daily Weather History Graph

Search for Another Location

Airport:

Trip Planner

Search our weather history database for the weather conditions in past years. The results will help you decide how hot, cold, wet, or windy it might be!

Date:

Astronomy

Nov. 30, 2012 Rise Set
Actual Time 7:00 AM EST 4:11 PM EST
Civil Twilight 6:28 AM EST 4:43 PM EST
Nautical Twilight 5:52 AM EST 5:19 PM EST
Astronomical Twilight 5:17 AM EST 5:53 PM EST
Moon 6:03 PM EST (11/30) 8:30 AM EST (11/30)
Length of Visible Light 10h 15m
Length of Day
9h 10m
Waning Gibbous, 96% of the Moon is Illuminated
Nov 30
Waning Gibbous
Dec 6
Last Quarter
Dec 13
New
Dec 20
First Quarter
Dec 28
Full

Hourly Weather History & Observations

Time (EST) Temp. Windchill Dew Point Humidity Pressure Visibility Wind Dir Wind Speed Gust Speed Precip Events Conditions
12:15 AM 27.5 °F 17.4 °F 18.1 °F 68% 30.22 in 10.0 mi WNW 11.5 mph 21.9 mph N/A Snow Light Snow
12:35 AM 27.0 °F 15.6 °F 16.9 °F 66% 30.23 in 10.0 mi WNW 13.8 mph 20.7 mph N/A   Overcast
12:55 AM 26.2 °F 17.1 °F 16.2 °F 66% 30.23 in 10.0 mi West 9.2 mph 20.7 mph N/A   Overcast
1:15 AM 25.7 °F 16.4 °F 16.7 °F 69% 30.24 in 10.0 mi WNW 9.2 mph - N/A Snow Light Snow
1:35 AM 25.3 °F 17.6 °F 16.0 °F 68% 30.25 in 10.0 mi WNW 6.9 mph - N/A   Overcast
1:55 AM 25.2 °F 15.1 °F 14.0 °F 63% 30.27 in 10.0 mi NW 10.4 mph 18.4 mph N/A   Mostly Cloudy
2:15 AM 24.6 °F 15.1 °F 12.7 °F 61% 30.29 in 10.0 mi NW 9.2 mph 16.1 mph N/A   Overcast
2:35 AM 23.9 °F 18.0 °F 12.6 °F 62% 30.30 in 10.0 mi West 4.6 mph - N/A   Overcast
2:55 AM 23.4 °F 13.5 °F 11.8 °F 61% 30.31 in 10.0 mi NW 9.2 mph - N/A   Overcast
3:15 AM 23.0 °F 13.9 °F 12.0 °F 63% 30.32 in 10.0 mi WNW 8.1 mph - N/A   Overcast
3:35 AM 22.3 °F 10.8 °F 11.8 °F 64% 30.33 in 10.0 mi WNW 11.5 mph 17.3 mph N/A   Overcast
3:55 AM 21.7 °F 11.5 °F 11.8 °F 66% 30.34 in 10.0 mi West 9.2 mph 17.3 mph N/A   Mostly Cloudy
4:15 AM 21.2 °F 13.6 °F 10.9 °F 65% 30.34 in 10.0 mi West 5.8 mph - N/A   Scattered Clouds
4:35 AM 20.7 °F 11.0 °F 10.4 °F 65% 30.36 in 10.0 mi West 8.1 mph - N/A   Clear
4:55 AM 20.3 °F 6.1 °F 9.5 °F 63% 30.36 in 10.0 mi West 16.1 mph 19.6 mph N/A   Clear
5:15 AM 19.6 °F 8.9 °F 9.1 °F 64% 30.37 in 10.0 mi West 9.2 mph 16.1 mph N/A   Clear
5:35 AM 19.4 °F 9.5 °F 9.3 °F 65% 30.38 in 10.0 mi WNW 8.1 mph - N/A   Clear
5:55 AM 18.5 °F 11.7 °F 9.7 °F 68% 30.40 in 10.0 mi NW 4.6 mph - N/A   Clear
6:15 AM 18.1 °F - 9.0 °F 67% 30.41 in 10.0 mi Calm Calm - N/A   Clear
6:35 AM 17.6 °F 8.2 °F 7.5 °F 65% 30.42 in 10.0 mi WNW 6.9 mph - N/A   Clear
6:55 AM 17.1 °F 6.6 °F 7.5 °F 66% 30.43 in 10.0 mi WNW 8.1 mph - N/A   Clear
7:15 AM 16.7 °F 8.3 °F 7.7 °F 68% 30.44 in 10.0 mi WNW 5.8 mph - N/A   Clear
7:35 AM 16.3 °F 9.2 °F 7.7 °F 69% 30.45 in 10.0 mi WNW 4.6 mph - N/A   Clear
7:55 AM 16.0 °F 6.3 °F 7.7 °F 70% 30.46 in 10.0 mi WNW 6.9 mph - N/A   Clear
8:15 AM 16.3 °F 9.2 °F 7.5 °F 68% 30.48 in 10.0 mi WNW 4.6 mph - N/A   Clear
8:35 AM 16.7 °F 9.6 °F 7.5 °F 67% 30.49 in 10.0 mi West 4.6 mph - N/A   Clear
8:55 AM 17.1 °F 8.7 °F 7.2 °F 65% 30.49 in 10.0 mi West 5.8 mph - N/A   Clear
9:15 AM 18.5 °F 9.3 °F 7.2 °F 61% 30.49 in 10.0 mi West 6.9 mph - N/A   Clear
9:35 AM 18.9 °F 8.8 °F 6.3 °F 58% 30.49 in 10.0 mi West 8.1 mph - N/A   Clear
9:55 AM 18.7 °F 9.5 °F 5.5 °F 57% 30.50 in 10.0 mi West 6.9 mph - N/A   Clear
10:15 AM 18.7 °F 7.8 °F 5.0 °F 55% 30.50 in 10.0 mi WNW 9.2 mph - N/A   Clear
10:35 AM 20.1 °F 9.5 °F 4.5 °F 51% 30.49 in 10.0 mi West 9.2 mph - N/A   Clear
10:55 AM 21.6 °F 11.3 °F 5.4 °F 50% 30.49 in 10.0 mi WNW 9.2 mph - N/A   Clear
11:15 AM 21.2 °F 10.9 °F 4.6 °F 49% 30.48 in 10.0 mi West 9.2 mph - N/A   Clear
11:35 AM 21.0 °F 11.4 °F 4.1 °F 48% 30.48 in 10.0 mi West 8.1 mph - N/A   Clear
11:55 AM 21.7 °F 12.3 °F 5.4 °F 49% 30.48 in 10.0 mi West 8.1 mph - N/A   Clear
12:15 PM 21.4 °F 11.1 °F 4.8 °F 49% 30.48 in 10.0 mi West 9.2 mph - N/A   Clear
12:35 PM 21.6 °F 8.8 °F 5.5 °F 50% 30.47 in 10.0 mi West 13.8 mph 17.3 mph N/A   Clear
12:55 PM 22.3 °F 12.2 °F 6.1 °F 50% 30.47 in 10.0 mi West 9.2 mph - N/A   Clear
1:15 PM 23.0 °F 13.1 °F 6.1 °F 48% 30.47 in 10.0 mi West 9.2 mph - N/A   Clear
1:35 PM 22.8 °F 13.6 °F 5.4 °F 47% 30.47 in 10.0 mi West 8.1 mph - N/A   Clear
2:15 PM 23.0 °F 14.7 °F 6.1 °F 48% 30.46 in 10.0 mi West 6.9 mph - N/A   Clear
2:35 PM 22.8 °F 13.6 °F 5.9 °F 48% 30.47 in 10.0 mi West 8.1 mph - N/A   Clear
2:55 PM 22.8 °F 12.9 °F 5.2 °F 47% 30.47 in 10.0 mi West 9.2 mph - N/A   Clear
3:15 PM 23.0 °F 14.7 °F 5.0 °F 46% 30.47 in 10.0 mi West 6.9 mph - N/A   Clear
3:35 PM 22.6 °F 13.4 °F 4.5 °F 46% 30.47 in 10.0 mi West 8.1 mph 16.1 mph N/A   Clear
3:55 PM 22.1 °F 15.9 °F 3.7 °F 45% 30.48 in 10.0 mi West 4.6 mph - N/A   Clear
4:15 PM 21.6 °F 12.1 °F 4.1 °F 47% 30.49 in 10.0 mi West 8.1 mph - N/A   Clear
4:35 PM 21.0 °F 12.4 °F 4.8 °F 50% 30.49 in 10.0 mi West 6.9 mph - N/A   Clear
4:55 PM 21.0 °F 12.4 °F 3.7 °F 47% 30.49 in 10.0 mi West 6.9 mph - N/A   Clear
5:15 PM 20.8 °F 11.2 °F 3.9 °F 48% 30.50 in 10.0 mi West 8.1 mph - N/A   Clear
5:35 PM 20.7 °F 11.9 °F 3.7 °F 48% 30.51 in 10.0 mi West 6.9 mph - N/A   Clear
5:55 PM 20.3 °F 12.5 °F 4.5 °F 50% 30.52 in 10.0 mi WNW 5.8 mph - N/A   Clear
6:15 PM 20.1 °F 13.6 °F 4.1 °F 50% 30.52 in 10.0 mi West 4.6 mph - N/A   Clear
6:35 PM 19.9 °F 13.4 °F 4.8 °F 52% 30.53 in 10.0 mi WNW 4.6 mph - N/A   Mostly Cloudy
6:55 PM 19.9 °F 11.1 °F 4.5 °F 51% 30.53 in 10.0 mi WNW 6.9 mph - N/A   Overcast
7:15 PM 19.9 °F 12.1 °F 4.8 °F 52% 30.53 in 10.0 mi NW 5.8 mph - N/A   Overcast
7:35 PM 19.2 °F 12.5 °F 5.2 °F 54% 30.54 in 10.0 mi NW 4.6 mph - N/A   Overcast
7:55 PM 19.8 °F 13.2 °F 5.9 °F 55% 30.54 in 10.0 mi WNW 4.6 mph - N/A   Overcast
8:15 PM 20.1 °F 13.6 °F 6.1 °F 55% 30.54 in 10.0 mi NW 4.6 mph - N/A   Overcast
8:35 PM 19.8 °F 11.9 °F 6.3 °F 56% 30.55 in 10.0 mi NW 5.8 mph - N/A   Overcast
8:55 PM 19.6 °F 13.0 °F 6.4 °F 57% 30.54 in 10.0 mi WNW 4.6 mph - N/A   Overcast
9:15 PM 19.4 °F 12.8 °F 6.6 °F 58% 30.55 in 10.0 mi NW 4.6 mph - N/A   Overcast
9:35 PM 19.4 °F 12.8 °F 6.3 °F 57% 30.55 in 10.0 mi NW 4.6 mph - N/A   Overcast
9:55 PM 19.4 °F 14.3 °F 6.1 °F 56% 30.55 in 10.0 mi WNW 3.5 mph - N/A   Overcast
10:15 PM 19.6 °F 13.0 °F 6.6 °F 57% 30.55 in 10.0 mi WNW 4.6 mph - N/A   Overcast
10:35 PM 19.8 °F - 6.8 °F 57% 30.56 in 10.0 mi Calm Calm - N/A   Overcast
10:55 PM 19.8 °F 14.7 °F 7.0 °F 58% 30.56 in 10.0 mi WNW 3.5 mph - N/A   Overcast
11:15 PM 19.9 °F 14.9 °F 7.0 °F 57% 30.57 in 10.0 mi WNW 3.5 mph - N/A   Overcast
11:35 PM 19.9 °F - 6.8 °F 57% 30.57 in 10.0 mi Calm Calm - N/A   Overcast
11:55 PM 20.1 °F - 7.3 °F 58% 30.57 in 10.0 mi Calm Calm - N/A   Overcast